This is the latest recevied weather packets stored in our database for station/object N3EG. If no packets are shown the sender has not sent any weather packets the latest 10 day(s).
| Time | Temp. | Humidity | Pressure | Rain* | Wind** | Luminosity | Snow |
|---|---|---|---|---|---|---|---|
| 1788133502 | 22.22° C | 63% | 1018.3 hPa | 0 mm | - | - | - |
| 1788133203 | 22.22° C | 64% | 1018.3 hPa | 0 mm | - | - | - |
| 1788132903 | 21.67° C | 66% | 1018.5 hPa | 0 mm | - | - | - |
| 1788132602 | 21.67° C | 64% | 1018.6 hPa | 0 mm | - | - | - |
| 1788132303 | 21.67° C | 64% | 1018.7 hPa | 0 mm | - | - | - |
| 1788132003 | 21.11° C | 66% | 1018.7 hPa | 0 mm | - | - | - |
| 1788131702 | 21.11° C | 65% | 1018.7 hPa | 0 mm | - | - | - |
| 1788131403 | 21.11° C | 65% | 1018.8 hPa | 0 mm | - | - | - |
| 1788131103 | 21.11° C | 65% | 1018.8 hPa | 0 mm | - | - | - |
| 1788130802 | 21.11° C | 66% | 1018.7 hPa | 0 mm | - | - | - |
| 1788130503 | 21.11° C | 65% | 1018.8 hPa | 0 mm | - | - | - |
| 1788130203 | 21.11° C | 65% | 1018.8 hPa | 0 mm | - | - | - |
| 1788129902 | 21.11° C | 65% | 1018.8 hPa | 0 mm | - | - | - |
| 1788129603 | 21.11° C | 65% | 1019 hPa | 0 mm | - | - | - |
| 1788129302 | 21.11° C | 65% | 1019 hPa | 0 mm | - | - | - |
| 1788129015 | 21.11° C | 65% | 1019.1 hPa | 0 mm | - | - | - |
| 1788128703 | 21.11° C | 65% | 1019.1 hPa | 0 mm | - | - | - |
| 1788128402 | 21.11° C | 64% | 1019.2 hPa | 0 mm | - | - | - |
| 1788128102 | 21.11° C | 65% | 1019.2 hPa | 0 mm | - | - | - |
| 1788127803 | 21.11° C | 65% | 1019.4 hPa | 0 mm | - | - | - |
| 1788127503 | 21.11° C | 65% | 1019.4 hPa | 0 mm | - | - | - |
| 1788127202 | 21.11° C | 66% | 1019.5 hPa | 0 mm | - | - | - |
| 1788126903 | 21.11° C | 63% | 1019.5 hPa | 0 mm | - | - | - |
| 1788126603 | 21.11° C | 64% | 1019.6 hPa | 0 mm | - | - | - |
| 1788126302 | 21.11° C | 65% | 1019.6 hPa | 0 mm | - | - | - |
* Rain latest hour (hover to see other rain measurements)
** Current wind speed in m/s (hover to see current wind gust speed)